Wind_Speed
31 37 4 14 9 7 10 12 11 10 8 4 3 2 3 6 7 5 3 2 4 6 7 8 10 9 7 7 9 10 11 12 13 11 11 12 11 8 13 14 17 15 21
26 30 26 15 8 13 12 9 9 9 9 6 5 4 4 5 9 10 10 9 8 9 10 10 11 10 11 10 10 10 10 11 12 12 12 14 16 15 9 13 19 18 21
23 19 17 12 6 3 6 8 9 9 10 8 7 6 5 7 11 14 14 13 13 13 14 14 15 15 12 11 11 11 12 12 13 13 13 14 15 17 18 18 19 21 23
21 20 12 11 7 6 7 9 10 10 10 11 10 9 10 11 11 13 15 17 18 17 17 17 16 15 14 14 13 12 12 13 13 14 14 14 15 17 18 20 22 23 25
17 15 9 9 10 11 11 12 14 13 11 10 11 12 13 13 12 13 14 16 17 17 16 17 16 16 15 13 14 14 15 14 13 12 13 15 18 20 21 23 24 25 27
15 14 13 13 16 18 15 17 17 14 13 13 13 15 15 14 14 14 14 15 16 17 18 19 19 19 17 16 17 17 17 16 16 17 18 20 21 22 23 25 27 28 29
15 15 17 18 19 18 19 18 20 17 16 17 15 15 15 16 17 15 15 15 17 18 20 20 19 19 19 19 19 18 17 18 19 19 20 21 22 24 27 28 30 32 34
12 13 22 15 6 9 14 16 16 16 17 21 21 16 16 17 20 20 19 19 20 21 20 19 18 18 17 18 18 18 18 19 20 21 23 25 27 28 30 32 34 36 39
13 13 17 21 8 3 5 0 3 8 14 22 23 20 16 17 20 21 21 21 20 19 18 17 17 18 19 22 22 22 22 22 25 27 29 31 32 34 36 38 41 42 43
14 14 14 18 15 2 3 4 5 8 7 7 7 10 17 21 21 18 17 18 20 19 17 17 16 18 21 22 24 25 27 29 31 32 33 35 37 39 41 42 43 44 46
14 15 14 14 15 15 9 9 11 13 7 9 10 12 12 14 16 18 18 16 15 17 20 21 22 23 24 26 28 30 31 33 34 36 38 41 43 44 45 45 45 43 43
17 14 14 15 15 14 14 11 11 9 10 7 4 6 11 15 17 18 20 22 22 22 24 25 27 28 30 31 33 35 36 37 39 41 44 46 47 47 45 42 40 40 39
23 20 16 15 18 17 17 17 13 15 12 10 10 11 16 18 19 23 25 25 26 27 28 29 31 32 34 35 37 38 40 42 44 45 46 47 47 44 40 37 38 38 37
24 24 24 20 18 18 20 21 19 19 19 18 18 19 19 21 23 25 26 27 28 29 30 32 34 35 38 39 41 43 45 46 46 45 45 43 39 36 37 36 36 37 37
29 29 27 27 24 21 22 23 23 23 23 23 23 22 23 24 25 27 28 28 29 31 33 35 37 39 40 42 44 44 44 43 41 38 36 35 36 36 36 37 37 40 41
36 38 36 33 30 26 24 25 27 28 27 27 27 27 28 28 29 29 29 30 31 34 35 37 40 41 42 42 42 39 38 36 33 32 33 35 36 36 37 39 39 38 39
39 38 37 36 35 29 26 28 29 30 31 31 30 29 30 30 31 31 31 31 33 36 39 40 40 40 40 39 38 37 33 30 32 33 35 36 36 38 37 37 39 40 41
26 26 22 20 24 26 27 30 31 32 32 31 31 31 32 32 30 30 32 35 37 38 37 38 39 40 39 38 36 32 32 33 33 35 36 37 36 36 37 39 41 42 42
26 26 23 21 20 22 23 23 24 27 29 30 32 34 31 30 31 33 34 36 38 38 38 39 39 38 37 36 33 32 33 33 35 36 35 34 35 37 39 40 41 40 37
31 31 31 31 28 27 29 29 28 28 29 31 32 32 34 36 36 37 39 39 38 38 37 38 38 39 37 34 33 33 34 35 34 33 34 35 37 38 40 40 37 35 35
33 34 35 35 37 37 37 35 35 34 35 35 35 35 36 36 38 39 38 36 37 36 38 39 40 35 34 33 34 34 36 34 33 33 33 37 37 39 38 35 34 34 33
39 40 41 41 41 40 38 38 40 40 40 40 38 36 35 36 38 36 35 35 35 37 36 35 34 34 35 35 35 35 34 34 34 34 37 39 40 39 36 33 34 33 33
44 43 44 45 44 45 44 45 44 43 41 40 37 34 33 34 34 34 34 34 35 35 34 33 34 36 36 36 37 34 35 36 36 36 38 40 40 39 35 34 33 33 33
48 48 46 47 47 48 49 48 46 44 41 37 38 35 33 35 33 33 33 34 34 34 35 34 36 37 37 37 34 35 36 37 38 38 38 40 40 38 35 34 34 34 34
47 47 48 47 47 47 46 45 44 42 39 38 37 35 36 36 34 32 35 35 34 33 33 36 38 37 36 34 34 37 38 37 39 39 40 40 38 37 36 35 35 35 36
46 47 46 43 41 40 36 35 35 39 37 37 35 38 36 43 36 31 35 37 35 35 37 39 38 37 35 36 36 39 38 40 40 40 40 40 38 38 37 37 37 37 38
Wind_Direction
332 331 341 158 224 239 179 176 221 231 243 242 211 210 224 208 204 215 223 296 347 347 354 1 9 6 360 349 345 347 342 338 338 327 298 309 319 288 274 270 255 259 284
337 341 359 43 88 123 135 202 224 234 238 248 247 237 241 250 234 232 250 269 291 307 318 331 338 337 341 330 328 328 322 320 319 319 314 314 316 304 280 294 292 271 282
325 335 347 6 59 94 224 226 228 236 243 245 254 256 253 252 251 250 257 269 282 292 302 314 320 319 320 317 317 316 315 314 310 309 305 301 304 302 302 299 298 298 297
318 325 312 316 318 290 265 260 250 248 246 240 247 257 253 250 253 260 265 274 282 290 298 304 308 308 310 309 308 310 311 308 308 307 308 310 311 309 308 306 305 305 305
326 334 294 281 289 286 279 275 267 256 253 257 264 266 268 266 268 271 275 278 285 291 299 302 302 302 302 299 297 302 305 306 306 307 307 307 307 306 303 301 301 301 302
334 334 314 298 294 290 282 271 269 267 266 260 262 263 262 268 269 272 279 287 291 293 297 299 299 299 297 295 294 296 298 299 298 299 302 303 303 303 301 300 298 297 298
332 334 334 306 299 297 282 275 261 257 255 259 254 260 266 267 268 270 279 286 291 293 295 295 293 294 293 291 290 292 294 296 296 297 297 297 297 297 298 299 297 297 297
328 342 351 344 337 312 285 280 271 253 264 266 257 262 271 271 270 271 277 286 290 290 290 288 288 288 288 287 287 289 289 289 291 293 294 294 295 296 298 298 297 296 295
332 339 350 355 310 352 8 2 240 304 277 249 256 256 261 271 279 276 277 281 282 281 285 284 285 287 286 289 287 287 288 291 294 296 296 296 297 297 297 298 298 297 296
318 322 328 330 345 328 274 276 285 332 347 343 305 272 269 278 279 276 279 280 276 281 280 283 285 285 286 289 292 293 294 295 296 294 294 295 296 297 298 297 297 298 300
300 306 309 318 319 325 330 328 312 296 335 336 307 288 276 281 270 273 281 286 270 268 275 278 285 287 287 287 288 291 293 295 295 295 294 295 299 302 303 302 303 304 302
287 291 297 301 301 300 293 289 300 305 322 347 288 299 268 271 275 274 274 281 281 282 283 286 288 289 290 291 292 292 292 293 294 297 299 299 302 303 303 302 301 300 300
282 283 279 279 281 280 284 286 287 287 290 288 273 264 258 259 266 276 279 281 282 283 285 286 287 287 288 292 294 294 296 298 298 299 300 302 304 305 303 302 303 303 302
285 282 280 274 272 275 275 277 276 276 280 279 275 273 274 273 275 276 278 282 283 284 286 288 291 293 295 295 295 295 296 298 299 300 302 303 303 302 302 302 302 301 300
280 277 275 272 268 269 270 274 276 276 276 278 280 280 279 278 277 277 279 281 284 286 287 289 290 291 293 294 294 295 297 299 301 303 303 302 301 301 301 301 301 301 303
284 276 271 270 268 264 268 273 275 277 278 277 277 279 279 280 282 282 283 287 289 289 290 290 290 292 293 294 297 300 302 302 302 302 300 300 301 301 301 301 304 306 307
284 278 273 270 261 261 265 272 277 280 279 277 276 276 275 278 281 286 289 290 290 290 290 292 293 293 297 301 303 304 303 300 300 300 301 303 303 303 306 307 307 308 308
284 280 279 271 263 266 272 274 273 273 275 276 275 273 275 279 283 286 289 292 291 291 293 295 296 299 301 301 301 300 299 301 302 303 302 303 304 305 306 308 309 309 309
278 270 273 274 276 282 286 290 284 278 278 279 278 278 279 280 287 289 292 296 297 294 296 299 301 302 300 299 296 296 298 301 302 301 301 302 304 306 307 308 308 309 309
282 284 279 267 273 281 284 284 287 288 287 285 285 282 283 287 290 296 299 297 295 295 298 299 300 298 297 293 293 295 298 300 299 299 302 302 304 306 307 308 308 309 309
271 277 277 275 271 276 280 282 284 286 288 287 286 287 290 292 294 299 297 293 296 298 299 298 297 294 291 293 294 295 297 294 295 298 299 302 303 305 305 306 307 307 308
270 272 276 276 273 274 277 281 283 285 286 286 287 287 290 295 296 294 292 296 296 296 298 296 293 291 289 292 290 293 290 291 295 297 301 303 306 307 306 305 307 308 310
275 274 273 275 277 277 280 283 286 286 286 286 283 284 290 291 291 291 293 294 293 291 292 290 288 291 292 292 292 290 291 294 295 298 302 304 306 305 302 304 306 308 308
275 276 275 275 275 278 280 282 284 285 283 279 280 285 286 285 287 290 288 290 291 290 290 289 289 290 291 291 288 288 291 293 294 297 299 301 302 302 300 303 305 305 304
276 276 275 275 275 276 277 279 280 281 281 278 279 285 285 281 278 281 287 290 288 290 292 293 291 290 290 285 286 290 291 292 294 296 298 300 300 300 300 300 303 303 303
273 274 276 278 279 279 282 283 279 280 280 278 283 282 280 277 272 281 285 286 287 288 292 291 291 289 286 287 291 290 294 294 296 296 298 298 299 298 298 297 299 300 300
Height
5869 5859 5844 5847 5852 5854 5856 5860 5864 5865 5866 5866 5865 5865 5866 5867 5869 5870 5871 5872 5871 5870 5868 5867 5864 5862 5861 5860 5858 5858 5856 5855 5854 5854 5854 5853 5851 5851 5851 5850 5851 5852 5852
5869 5861 5856 5846 5850 5851 5854 5859 5860 5862 5863 5863 5863 5863 5864 5865 5867 5868 5869 5870 5869 5869 5868 5866 5863 5862 5860 5859 5858 5856 5855 5854 5854 5853 5852 5851 5850 5849 5849 5849 5848 5849 5849
5869 5864 5860 5857 5855 5855 5858 5858 5858 5858 5860 5859 5860 5861 5861 5863 5865 5866 5867 5867 5867 5866 5865 5863 5862 5861 5859 5858 5856 5855 5854 5853 5852 5851 5851 5849 5848 5847 5846 5846 5845 5845 5844
5868 5864 5861 5861 5859 5858 5857 5857 5857 5857 5856 5856 5857 5858 5859 5861 5861 5863 5863 5864 5864 5863 5862 5861 5859 5858 5857 5856 5854 5853 5851 5850 5849 5848 5847 5846 5845 5844 5843 5841 5840 5838 5836
5864 5859 5858 5857 5857 5856 5855 5855 5855 5856 5855 5854 5855 5856 5858 5859 5859 5859 5859 5860 5860 5859 5858 5858 5857 5855 5854 5852 5851 5850 5848 5847 5846 5845 5844 5843 5841 5840 5838 5836 5835 5833 5831
5861 5859 5856 5855 5854 5853 5851 5851 5852 5852 5852 5853 5853 5854 5854 5855 5855 5856 5856 5856 5856 5856 5855 5854 5853 5852 5850 5849 5848 5847 5845 5844 5843 5841 5840 5838 5836 5834 5832 5830 5828 5826 5824
5859 5856 5854 5851 5848 5847 5846 5846 5847 5848 5849 5850 5850 5850 5850 5850 5851 5851 5851 5851 5851 5851 5850 5849 5848 5847 5846 5845 5843 5842 5841 5839 5837 5836 5834 5832 5830 5828 5826 5824 5821 5818 5816
5857 5854 5850 5846 5844 5841 5841 5841 5841 5843 5844 5844 5845 5845 5845 5846 5846 5846 5846 5846 5847 5846 5844 5843 5843 5842 5842 5840 5839 5837 5836 5834 5832 5830 5828 5826 5824 5822 5819 5816 5813 5810 5806
5855 5852 5849 5845 5844 5841 5840 5839 5838 5839 5836 5836 5838 5841 5841 5842 5841 5841 5841 5841 5841 5841 5839 5838 5838 5837 5837 5836 5835 5833 5831 5829 5827 5824 5822 5819 5816 5813 5810 5807 5803 5799 5795
5854 5850 5847 5845 5842 5840 5838 5838 5837 5836 5835 5835 5835 5836 5837 5837 5837 5836 5836 5836 5836 5836 5835 5834 5833 5832 5831 5831 5830 5828 5826 5823 5821 5818 5814 5811 5808 5804 5800 5797 5793 5788 5784
5851 5848 5845 5843 5842 5839 5837 5836 5836 5835 5835 5833 5832 5833 5834 5833 5833 5833 5832 5832 5832 5832 5832 5830 5829 5828 5827 5825 5823 5821 5819 5816 5813 5810 5807 5803 5799 5795 5791 5786 5782 5778 5773
5846 5845 5843 5841 5840 5838 5836 5835 5834 5833 5833 5832 5831 5831 5832 5831 5831 5831 5831 5829 5829 5829 5828 5826 5824 5822 5820 5817 5815 5813 5810 5806 5803 5799 5796 5792 5788 5785 5781 5777 5773 5769 5765
5842 5840 5839 5837 5836 5834 5832 5831 5831 5829 5830 5829 5829 5828 5827 5827 5826 5826 5825 5825 5824 5823 5821 5819 5817 5815 5813 5810 5807 5804 5800 5796 5793 5789 5785 5782 5777 5773 5770 5767 5763 5759 5755
5838 5836 5835 5833 5831 5829 5829 5827 5827 5827 5825 5825 5824 5823 5822 5821 5821 5820 5819 5818 5817 5815 5813 5811 5809 5806 5804 5800 5797 5793 5789 5786 5782 5778 5774 5770 5767 5763 5760 5757 5753 5750 5746
5831 5829 5828 5827 5826 5825 5824 5822 5821 5821 5820 5819 5818 5816 5816 5816 5815 5814 5813 5811 5809 5807 5805 5803 5801 5797 5794 5790 5787 5783 5780 5776 5772 5768 5765 5762 5759 5755 5751 5747 5744 5740 5735
5821 5820 5819 5819 5818 5817 5816 5816 5815 5815 5813 5812 5811 5810 5809 5807 5807 5806 5804 5802 5800 5799 5796 5793 5791 5788 5784 5781 5777 5773 5769 5765 5762 5758 5755 5752 5749 5745 5741 5738 5733 5729 5724
5809 5807 5807 5807 5807 5808 5808 5808 5808 5807 5806 5805 5804 5803 5802 5801 5799 5797 5795 5793 5792 5789 5786 5784 5781 5777 5773 5769 5765 5762 5759 5756 5753 5750 5747 5743 5739 5736 5732 5728 5723 5719 5714
5801 5799 5798 5798 5799 5800 5800 5799 5799 5799 5799 5798 5796 5795 5794 5792 5790 5789 5787 5785 5783 5779 5775 5772 5768 5765 5761 5758 5755 5752 5750 5747 5744 5741 5738 5734 5730 5727 5722 5718 5713 5708 5704
5796 5795 5793 5792 5791 5792 5791 5790 5789 5789 5789 5789 5788 5787 5784 5783 5782 5780 5777 5774 5771 5767 5764 5761 5758 5755 5751 5749 5747 5744 5741 5738 5735 5731 5728 5725 5722 5717 5713 5708 5703 5699 5694
5788 5788 5786 5785 5784 5783 5782 5782 5781 5780 5778 5778 5777 5776 5775 5773 5771 5769 5765 5762 5759 5757 5754 5751 5748 5744 5742 5740 5738 5734 5732 5729 5726 5722 5720 5716 5712 5708 5703 5698 5693 5689 5685
5780 5779 5777 5777 5776 5775 5774 5772 5771 5770 5769 5768 5767 5766 5764 5762 5760 5758 5755 5752 5749 5746 5743 5740 5737 5736 5733 5731 5728 5726 5723 5719 5717 5714 5710 5707 5703 5698 5694 5689 5685 5681 5676
5769 5768 5767 5766 5765 5764 5763 5762 5761 5760 5759 5758 5757 5755 5754 5752 5750 5748 5745 5742 5740 5737 5734 5731 5728 5726 5724 5722 5720 5717 5713 5710 5706 5703 5700 5697 5692 5687 5683 5679 5675 5671 5667
5757 5757 5755 5754 5753 5752 5751 5750 5749 5748 5747 5746 5745 5744 5743 5741 5738 5737 5735 5733 5731 5728 5725 5723 5720 5717 5715 5713 5709 5706 5703 5700 5697 5693 5690 5686 5681 5677 5674 5670 5665 5661 5658
5744 5743 5742 5741 5741 5741 5739 5738 5738 5737 5736 5734 5733 5734 5733 5730 5729 5727 5725 5723 5720 5718 5716 5713 5710 5707 5705 5702 5699 5696 5693 5690 5687 5683 5680 5676 5671 5667 5664 5660 5656 5652 5649
5730 5729 5729 5728 5728 5728 5727 5726 5726 5725 5725 5724 5724 5722 5721 5720 5718 5716 5715 5712 5710 5708 5706 5703 5701 5698 5694 5691 5689 5686 5683 5680 5676 5672 5668 5665 5661 5657 5653 5649 5646 5642 5639
5716 5716 5715 5715 5716 5716 5716 5715 5715 5714 5714 5714 5713 5711 5710 5708 5706 5705 5704 5701 5699 5697 5695 5692 5689 5686 5683 5681 5678 5674 5672 5668 5665 5660 5656 5652 5649 5646 5642 5639 5635 5632 5628